Wind_Speed
18 19 17 17 17 18 20 18 19 23 30 38 42 42 44 45 45 44 45 47 46 46 49 48 48 50 51 44 43 39 36 34 35 37 38 39 39 40 42 42 42 43 43 42 43 42 40 40 41
21 22 20 19 18 20 21 21 22 24 25 31 33 39 42 46 48 51 50 50 51 51 52 53 54 55 54 50 44 39 34 30 32 33 35 36 37 37 39 39 39 39 38 39 38 36 35 36 38
20 22 22 22 23 20 19 19 23 25 27 27 26 31 37 44 44 47 51 54 55 53 50 48 48 46 47 45 40 33 35 32 34 34 34 36 36 35 34 34 33 33 34 34 34 36 37 36 37
21 21 23 25 25 26 23 24 25 23 28 28 28 29 31 33 35 40 41 42 44 44 44 45 45 45 42 42 36 35 34 37 39 37 36 35 36 36 36 33 33 34 36 37 38 38 37 36 36
22 21 22 22 22 25 26 24 24 26 28 28 29 31 31 30 30 34 35 36 39 40 41 41 39 39 40 38 37 37 38 41 42 38 34 32 35 38 38 37 36 35 35 36 37 36 35 34 35
18 19 19 21 21 21 23 26 27 26 27 30 31 32 34 33 30 33 35 37 38 39 40 41 41 43 41 42 42 42 45 47 46 42 36 36 34 37 40 40 38 37 35 35 34 33 32 34 33
18 19 18 19 20 21 22 23 24 24 27 30 33 35 36 37 36 37 37 36 37 39 42 43 42 40 44 46 44 46 46 47 45 39 39 37 39 40 39 41 42 41 39 38 36 35 34 34 33
18 19 19 20 21 22 22 23 24 24 24 28 32 34 36 39 40 39 39 38 39 39 39 42 45 43 45 46 47 40 43 41 40 39 38 39 39 38 38 40 37 37 39 39 38 38 36 35 33
20 21 22 23 23 24 23 24 25 24 27 29 31 31 32 34 36 37 36 36 37 37 38 39 40 40 39 41 42 41 39 39 39 38 41 36 35 34 31 30 31 31 32 33 35 38 38 35 33
21 22 23 26 28 28 28 28 28 27 28 28 30 31 33 33 32 36 34 30 30 28 25 23 28 34 36 36 38 41 42 42 40 35 30 34 31 30 30 29 28 29 30 31 33 35 36 35 32
24 25 27 29 32 35 34 32 31 29 29 28 29 31 34 32 32 33 33 28 19 16 21 24 26 26 32 35 34 35 36 40 43 35 28 30 30 29 29 32 32 31 29 29 29 30 31 31 29
27 28 30 32 35 38 39 38 37 32 28 27 28 31 32 31 30 26 27 30 26 24 25 27 28 27 29 29 29 27 27 26 23 19 24 28 30 30 28 27 26 27 29 30 31 30 28 28 28
28 32 36 36 38 41 42 42 37 32 26 25 26 29 29 28 27 26 24 19 23 22 24 26 29 29 28 26 27 22 22 22 20 22 25 29 25 23 26 28 28 29 32 33 30 29 25 28 27
30 36 40 41 42 45 44 42 37 30 25 22 21 24 24 26 26 24 24 21 17 22 30 30 28 29 25 24 26 24 25 23 20 19 25 24 22 21 23 22 22 26 31 30 31 31 30 30 33
34 37 43 42 46 47 47 43 33 25 20 16 16 20 21 23 21 17 17 18 19 18 19 32 35 38 25 14 26 25 30 28 30 17 16 19 20 25 27 27 29 32 33 29 30 34 34 32 35
38 42 46 48 47 48 48 39 28 21 16 12 10 8 13 16 14 12 12 20 20 21 23 23 24 22 21 16 15 27 33 30 22 25 31 33 33 39 44 45 47 47 44 40 36 39 40 40 41
36 44 48 51 52 52 49 37 27 21 11 4 5 6 6 2 6 12 20 14 15 16 21 31 29 25 21 23 20 23 28 25 23 28 28 32 36 47 48 53 55 55 54 48 45 41 37 44 47
34 44 50 49 53 54 48 36 28 20 13 9 4 6 6 5 9 8 10 9 11 16 24 25 29 18 23 26 24 28 30 25 27 37 33 35 51 43 46 51 50 61 57 51 50 46 45 51 54
37 42 53 51 54 54 43 34 23 14 14 14 6 6 5 2 8 18 27 29 25 30 33 33 31 24 24 29 31 30 36 33 40 48 47 50 57 53 61 55 60 61 58 54 57 56 51 56 59
39 48 48 51 56 54 41 30 22 13 15 13 7 8 4 5 17 22 30 33 39 42 43 42 34 33 31 37 40 42 45 50 47 48 49 51 52 57 58 60 64 65 55 47 51 59 56 63 60
43 45 50 53 55 47 33 27 22 15 20 17 13 9 10 14 21 27 29 31 30 39 44 47 46 41 35 36 47 52 55 55 54 53 56 58 60 59 61 72 67 60 61 58 54 48 53 58 55
44 47 52 56 51 39 27 21 24 17 22 18 18 18 16 24 25 28 40 44 40 37 45 47 47 45 43 40 44 53 57 59 60 57 57 55 62 64 65 71 70 71 61 61 53 55 52 59 57
45 48 53 56 45 37 24 17 21 18 21 27 28 28 28 33 36 40 47 50 48 54 52 58 55 49 47 48 50 51 56 60 62 62 60 62 62 65 66 67 75 72 81 73 78 61 61 64 60
43 47 53 48 38 31 20 15 20 22 18 23 32 36 38 40 43 48 49 53 60 64 62 62 54 46 43 50 53 52 54 59 61 63 65 65 64 65 71 69 69 67 77 83 74 76 74 66 74
40 45 50 40 29 22 17 14 17 19 22 27 33 39 43 46 53 53 55 63 62 58 54 54 54 52 55 57 56 60 60 62 65 68 68 71 74 74 72 72 73 73 72 76 83 79 81 82 78
39 45 46 31 26 22 17 14 13 13 15 17 20 28 37 48 54 57 54 52 54 53 54 53 53 58 64 67 68 65 65 66 68 72 76 77 78 79 81 81 80 79 78 79 81 82 84 84 84
38 44 43 27 25 23 23 20 21 21 22 23 25 28 31 33 38 43 45 45 45 50 54 58 62 65 69 73 75 75 75 75 76 79 81 84 85 85 86 86 87 87 88 86 85 85 84 84 84
37 41 41 28 25 24 24 22 18 20 22 23 25 29 31 33 36 38 42 46 49 53 57 61 65 69 73 77 79 82 82 84 87 92 94 92 90 91 91 93 94 95 96 95 95 91 87 86 89
37 40 42 35 27 26 25 24 20 23 26 28 29 28 31 35 38 42 45 48 50 54 60 66 69 73 74 78 83 82 87 90 97 96 93 94 94 96 91 91 95 99 99 99 98 95 96 93 90
39 42 43 40 34 32 27 24 25 31 32 34 38 38 42 44 48 51 52 55 59 63 68 74 78 80 84 85 85 90 93 95 94 84 79 74 73 74 83 87 85 87 94 98 99 99 96 94 94
Wind_Direction
307 308 304 309 309 294 285 286 275 266 260 252 251 254 255 259 260 263 265 269 274 278 278 275 277 284 286 283 284 281 280 288 295 291 289 287 284 279 277 274 273 271 270 271 270 271 272 274 275
309 306 296 300 307 301 303 301 289 282 270 259 257 256 256 257 260 263 264 268 271 277 280 281 281 282 283 281 279 278 278 283 302 296 292 288 285 284 281 279 278 276 275 275 273 274 277 278 280
311 303 295 291 291 298 290 288 283 278 280 282 272 264 261 257 261 266 268 271 274 276 279 281 279 280 275 278 276 279 278 280 298 300 297 294 288 284 280 280 279 279 277 275 276 278 280 282 284
315 310 303 294 295 292 296 292 291 282 275 277 280 277 276 273 269 270 272 274 275 278 277 277 275 272 272 270 270 277 284 292 295 302 298 298 291 284 280 277 277 276 277 277 276 277 279 282 284
312 307 307 305 300 291 291 294 294 287 279 279 277 280 281 277 274 272 271 273 275 274 274 273 270 274 270 279 285 280 288 294 298 298 295 298 295 287 280 276 278 280 282 282 281 280 284 286 291
328 325 322 315 309 306 300 297 296 294 292 289 283 276 274 273 274 273 272 271 270 268 269 268 272 273 276 282 285 288 292 294 296 297 294 299 296 296 287 279 279 278 281 281 282 285 289 289 292
354 349 342 332 326 320 315 309 302 297 296 288 281 278 277 273 270 267 268 269 269 267 266 266 272 277 279 281 284 290 292 293 294 292 291 292 300 300 294 287 280 281 281 282 283 283 286 288 286
355 352 348 344 339 335 330 318 307 302 294 287 281 279 278 275 275 273 272 270 269 269 269 265 268 274 277 279 282 284 291 291 290 287 297 299 299 294 290 287 289 286 282 282 282 284 283 285 285
352 349 347 343 339 337 331 325 320 311 297 290 284 283 280 278 278 278 279 280 282 284 285 286 284 284 284 281 281 281 283 285 287 293 297 298 295 291 292 295 293 290 287 283 282 283 282 280 280
348 346 345 347 345 336 331 329 319 304 288 283 284 283 279 278 280 281 280 285 287 290 296 303 308 301 295 290 285 281 278 280 284 294 299 293 292 296 295 292 292 293 295 295 292 287 283 279 278
340 336 339 344 343 342 336 331 324 306 290 283 280 278 277 278 275 277 285 284 277 292 300 298 305 304 305 299 291 291 287 284 282 288 300 295 296 296 296 295 296 295 294 293 292 289 288 284 278
346 337 337 341 342 342 339 333 323 308 297 287 281 279 283 282 282 287 283 278 278 280 278 292 304 312 306 304 296 296 299 300 305 297 301 302 294 291 297 303 300 300 300 299 295 296 293 289 289
344 348 352 344 340 342 339 332 321 310 302 297 290 283 283 283 282 272 268 278 283 287 295 300 304 307 308 304 303 305 307 306 309 300 295 301 300 307 302 296 302 310 327 308 303 297 291 291 286
336 344 346 342 341 340 339 332 320 311 307 302 296 286 280 274 271 272 270 278 293 289 293 291 294 300 313 315 310 315 315 315 311 310 311 323 321 321 326 319 311 306 302 304 292 284 287 284 287
334 342 346 344 340 340 339 332 324 312 306 299 281 275 275 270 270 275 290 299 299 298 290 284 289 286 299 304 293 310 308 305 323 330 343 340 331 322 316 309 304 305 303 293 295 295 287 291 295
335 341 344 338 339 340 338 333 319 312 314 296 299 297 290 273 270 282 275 313 319 316 311 303 304 299 285 268 287 287 293 300 320 334 325 315 315 314 309 303 299 297 295 293 287 291 289 287 280
330 335 339 335 338 337 336 331 322 311 301 148 137 97 344 306 260 283 286 304 326 341 324 311 291 291 288 266 250 252 273 288 294 299 300 294 288 293 293 293 289 288 284 281 284 282 268 273 277
328 328 332 334 335 334 335 326 320 300 286 224 179 105 82 326 254 287 296 297 285 267 302 281 301 295 288 277 264 238 225 241 264 269 283 270 269 264 263 262 265 272 284 269 273 274 268 273 275
330 326 330 333 333 330 328 318 314 293 271 220 221 223 233 48 254 289 303 299 306 313 323 328 318 291 277 261 250 240 232 264 262 272 271 262 262 262 263 260 259 260 271 270 275 263 273 263 265
329 331 331 334 331 328 326 312 301 274 231 212 246 293 16 301 290 299 292 293 299 304 314 317 311 296 280 259 257 257 250 260 265 269 261 257 262 264 247 259 262 264 264 273 281 264 259 256 258
332 333 331 333 330 327 324 303 288 243 228 234 248 275 303 278 277 276 277 277 295 296 317 309 300 295 285 276 267 268 268 272 274 276 268 255 265 260 263 250 254 266 257 268 271 272 266 254 259
334 332 331 333 330 327 323 295 283 248 228 227 249 265 276 269 274 290 290 285 287 302 305 311 306 302 293 282 271 270 272 271 273 274 272 272 271 264 259 250 253 255 259 258 263 265 263 260 263
331 330 333 334 329 327 325 280 272 270 246 238 239 249 252 268 273 273 279 284 292 297 300 301 302 300 295 290 284 278 275 276 276 276 274 269 269 270 271 262 254 256 255 257 259 262 252 255 258
330 330 336 335 330 327 324 291 280 273 274 263 259 255 262 264 275 277 282 289 293 299 296 296 298 297 299 297 293 287 277 275 280 281 280 275 271 270 268 267 265 262 258 256 262 258 259 251 253
330 333 338 337 341 346 330 304 292 283 278 274 273 272 273 274 282 282 284 291 298 299 299 301 302 303 308 309 301 297 291 283 277 276 275 278 276 270 264 266 268 264 262 261 259 259 258 262 262
330 336 341 334 336 343 348 352 346 335 318 307 302 288 285 283 284 286 290 295 299 302 305 306 310 307 303 301 300 298 290 286 282 278 274 273 272 273 272 263 261 262 263 261 260 261 261 262 264
332 337 343 329 327 330 331 332 329 327 324 319 315 311 305 300 297 295 296 298 301 306 307 307 307 305 303 301 300 298 294 289 283 278 276 276 272 268 267 267 265 259 257 259 259 259 260 262 264
330 338 341 335 312 314 317 319 321 316 317 320 319 318 319 311 308 307 305 303 302 305 307 308 304 300 299 298 298 296 295 293 292 288 283 279 275 270 265 263 264 263 259 256 256 258 262 263 262
327 334 335 340 314 309 312 311 314 317 316 316 315 318 320 318 316 312 309 310 309 306 310 307 304 306 300 296 298 296 295 294 293 290 283 278 277 274 270 263 263 262 261 261 260 259 260 262 264
327 330 332 335 327 304 307 296 298 314 316 318 319 315 318 319 317 316 314 311 308 306 309 308 305 304 303 305 304 301 299 296 295 294 290 287 282 276 271 270 267 262 261 260 259 259 260 261 265
Height
10916 10915 10914 10913 10913 10909 10906 10908 10908 10905 10903 10904 10905 10906 10907 10906 10906 10905 10904 10903 10903 10903 10903 10904 10904 10903 10902 10901 10900 10900 10899 10898 10895 10892 10889 10887 10885 10883 10882 10881 10880 10880 10879 10878 10877 10877 10877 10876 10875
10914 10912 10911 10910 10909 10907 10905 10905 10903 10901 10898 10897 10899 10899 10901 10900 10901 10899 10900 10899 10898 10897 10895 10895 10896 10896 10895 10894 10892 10892 10893 10892 10890 10887 10884 10880 10878 10876 10875 10874 10872 10872 10871 10870 10869 10870 10870 10870 10869
10912 10909 10907 10906 10905 10904 10901 10899 10898 10896 10894 10892 10893 10892 10892 10893 10898 10893 10893 10892 10891 10890 10889 10887 10887 10888 10887 10887 10886 10885 10885 10885 10884 10881 10878 10876 10874 10871 10869 10868 10866 10865 10863 10862 10862 10862 10863 10863 10862
10908 10905 10904 10903 10902 10900 10898 10896 10894 10893 10889 10889 10890 10888 10887 10888 10891 10888 10885 10884 10882 10882 10881 10880 10879 10877 10878 10879 10880 10879 10879 10878 10877 10875 10873 10870 10868 10866 10863 10861 10859 10857 10856 10855 10854 10854 10855 10855 10854
10904 10902 10901 10900 10898 10895 10894 10892 10890 10889 10887 10886 10886 10885 10882 10882 10882 10880 10879 10877 10875 10873 10872 10871 10871 10870 10870 10871 10872 10871 10871 10871 10869 10867 10865 10862 10860 10859 10856 10854 10853 10851 10849 10848 10848 10847 10847 10846 10846
10901 10900 10898 10896 10894 10892 10890 10887 10886 10885 10884 10882 10880 10877 10874 10874 10876 10874 10872 10870 10869 10868 10867 10866 10865 10865 10865 10864 10864 10864 10863 10862 10860 10859 10856 10854 10852 10850 10849 10847 10845 10844 10843 10840 10839 10839 10837 10836 10836
10900 10898 10896 10893 10891 10889 10887 10885 10883 10882 10879 10875 10872 10869 10868 10867 10867 10865 10864 10864 10864 10863 10862 10862 10862 10861 10861 10859 10858 10856 10854 10853 10851 10850 10848 10846 10844 10842 10840 10839 10837 10836 10835 10834 10832 10830 10829 10828 10827
10900 10898 10895 10893 10890 10888 10886 10883 10880 10878 10875 10869 10865 10862 10860 10856 10855 10857 10858 10858 10857 10857 10857 10857 10858 10857 10856 10853 10850 10848 10846 10844 10843 10842 10840 10838 10836 10834 10832 10830 10828 10827 10826 10825 10824 10823 10821 10820 10819
10899 10896 10893 10891 10889 10886 10883 10880 10877 10873 10867 10862 10859 10857 10852 10849 10849 10850 10852 10852 10852 10852 10852 10851 10851 10848 10846 10843 10842 10840 10839 10837 10835 10833 10831 10829 10827 10825 10823 10822 10820 10818 10817 10816 10816 10815 10814 10812 10811
10898 10895 10892 10889 10885 10880 10878 10878 10870 10864 10857 10854 10850 10847 10844 10843 10846 10842 10844 10846 10845 10844 10844 10843 10842 10840 10837 10835 10834 10832 10830 10828 10826 10825 10823 10821 10818 10816 10815 10814 10813 10811 10810 10809 10808 10807 10805 10804 10803
10896 10893 10889 10886 10880 10876 10872 10869 10864 10856 10850 10847 10842 10838 10836 10839 10839 10837 10837 10838 10837 10837 10836 10836 10835 10833 10832 10831 10828 10825 10822 10820 10819 10817 10814 10812 10809 10807 10806 10806 10806 10805 10803 10799 10797 10796 10796 10796 10795
10894 10890 10887 10881 10877 10872 10866 10861 10854 10849 10846 10841 10836 10830 10832 10832 10832 10833 10830 10827 10831 10832 10830 10829 10830 10831 10829 10826 10821 10818 10817 10815 10812 10808 10805 10803 10800 10800 10800 10799 10798 10797 10795 10792 10789 10788 10787 10787 10787
10889 10886 10882 10876 10874 10867 10860 10854 10848 10843 10840 10837 10833 10827 10827 10827 10825 10825 10823 10824 10825 10825 10825 10826 10827 10827 10826 10822 10819 10816 10811 10806 10803 10800 10798 10794 10791 10791 10791 10791 10792 10790 10789 10786 10784 10781 10779 10779 10779
10886 10882 10878 10871 10867 10863 10856 10848 10840 10837 10834 10831 10828 10821 10821 10821 10819 10820 10819 10821 10822 10821 10821 10821 10824 10824 10823 10821 10814 10812 10802 10800 10798 10796 10794 10793 10791 10788 10787 10786 10785 10784 10781 10779 10777 10776 10774 10772 10772
10881 10876 10872 10866 10861 10856 10850 10842 10836 10831 10828 10825 10821 10815 10813 10815 10817 10817 10818 10818 10817 10819 10820 10819 10819 10818 10820 10818 10810 10807 10798 10794 10795 10795 10794 10790 10788 10784 10782 10780 10779 10775 10772 10769 10764 10766 10768 10764 10763
10872 10869 10866 10862 10857 10852 10845 10838 10829 10825 10823 10820 10817 10813 10810 10810 10813 10816 10815 10814 10815 10812 10813 10815 10813 10811 10813 10810 10810 10807 10798 10797 10795 10792 10787 10785 10785 10782 10780 10778 10774 10771 10766 10763 10761 10758 10758 10758 10757
10872 10866 10862 10854 10849 10845 10839 10832 10825 10820 10819 10819 10817 10812 10810 10808 10811 10811 10810 10809 10810 10807 10802 10811 10808 10805 10803 10799 10800 10798 10795 10792 10791 10787 10785 10782 10775 10777 10777 10770 10763 10756 10756 10752 10750 10750 10746 10749 10746
10872 10866 10861 10853 10845 10837 10828 10825 10823 10818 10817 10817 10815 10810 10808 10811 10811 10810 10807 10806 10806 10808 10807 10812 10803 10798 10793 10787 10787 10787 10780 10775 10775 10772 10772 10767 10769 10764 10759 10758 10751 10742 10741 10738 10735 10738 10734 10734 10732
10869 10864 10856 10848 10839 10832 10824 10817 10816 10817 10813 10813 10810 10806 10804 10805 10807 10806 10803 10803 10801 10800 10798 10795 10791 10790 10786 10779 10775 10773 10770 10765 10763 10759 10760 10758 10752 10750 10747 10744 10737 10735 10731 10726 10723 10725 10726 10723 10718
10866 10858 10852 10844 10833 10824 10817 10811 10810 10809 10808 10808 10806 10802 10798 10802 10804 10803 10799 10795 10792 10791 10789 10788 10785 10782 10779 10772 10767 10763 10759 10756 10754 10750 10746 10743 10739 10736 10735 10731 10726 10725 10720 10714 10711 10710 10712 10709 10706
10861 10853 10844 10841 10831 10819 10811 10804 10805 10805 10804 10801 10801 10796 10794 10795 10795 10794 10788 10785 10787 10785 10781 10777 10775 10773 10768 10765 10757 10752 10747 10742 10737 10734 10731 10728 10724 10723 10718 10721 10714 10710 10710 10703 10700 10698 10696 10692 10691
10857 10849 10840 10833 10824 10814 10807 10799 10797 10801 10801 10799 10798 10792 10790 10788 10787 10785 10780 10775 10778 10778 10775 10768 10765 10760 10757 10753 10748 10739 10733 10727 10722 10720 10716 10712 10707 10704 10703 10705 10702 10696 10693 10691 10686 10687 10683 10683 10677
10854 10846 10838 10825 10813 10807 10804 10800 10795 10795 10796 10795 10793 10791 10788 10785 10783 10781 10779 10776 10774 10769 10766 10761 10755 10750 10744 10739 10735 10728 10718 10710 10703 10699 10697 10696 10690 10684 10682 10682 10683 10679 10676 10673 10672 10670 10670 10666 10662
10851 10841 10833 10823 10812 10805 10801 10799 10794 10792 10792 10791 10788 10788 10787 10784 10781 10778 10775 10771 10766 10761 10755 10748 10741 10736 10732 10724 10718 10713 10706 10696 10689 10682 10675 10671 10669 10665 10660 10657 10656 10653 10653 10652 10653 10652 10650 10645 10644
10848 10841 10832 10821 10813 10807 10802 10800 10795 10793 10792 10789 10788 10787 10785 10780 10775 10772 10768 10761 10755 10751 10745 10736 10727 10719 10713 10708 10701 10693 10686 10678 10671 10662 10656 10650 10644 10641 10637 10633 10631 10631 10629 10628 10629 10627 10625 10624 10622
10844 10838 10830 10820 10814 10809 10805 10801 10797 10795 10792 10790 10787 10784 10780 10775 10770 10764 10760 10753 10746 10736 10729 10724 10717 10709 10700 10691 10681 10674 10667 10659 10651 10643 10634 10626 10621 10613 10609 10609 10606 10604 10604 10603 10602 10602 10602 10599 10598
10841 10835 10827 10819 10813 10809 10805 10801 10796 10792 10789 10786 10783 10779 10774 10769 10763 10758 10752 10745 10738 10728 10718 10710 10700 10690 10680 10670 10661 10652 10644 10635 10626 10618 10611 10602 10595 10590 10585 10581 10578 10577 10577 10577 10578 10578 10580 10577 10576
10837 10833 10826 10820 10815 10809 10804 10800 10797 10791 10787 10783 10779 10773 10768 10762 10756 10750 10744 10736 10728 10718 10709 10700 10690 10680 10669 10655 10641 10629 10619 10608 10598 10588 10580 10573 10566 10558 10555 10552 10550 10548 10548 10550 10550 10552 10555 10555 10555
10834 10829 10823 10817 10811 10806 10801 10796 10792 10789 10785 10779 10773 10768 10763 10756 10749 10741 10732 10723 10715 10705 10695 10685 10673 10664 10651 10636 10619 10605 10592 10581 10567 10553 10545 10538 10532 10525 10522 10522 10520 10518 10517 10519 10522 10528 10530 10530 10530
10827 10823 10818 10813 10807 10801 10798 10792 10787 10782 10777 10771 10765 10759 10753 10746 10737 10729 10721 10711 10701 10689 10676 10665 10651 10639 10623 10609 10594 10578 10562 10547 10531 10519 10508 10503 10497 10492 10487 10485 10484 10484 10482 10485 10493 10499 10503 10506 10508